Wind_Speed
15 15 15 14 13 12 12 11 10 9 9 9 9 9 8 9 10 9 9 9 9 9 9 10 11 11 11 11 11 11 11 12 12 11 12 12 12 12 12 11 11 11 10 10
16 16 15 15 13 13 12 12 11 10 10 8 8 9 9 9 9 10 10 10 10 10 10 10 11 11 12 12 12 12 12 12 12 12 12 13 13 13 13 12 12 13 13 12
18 16 16 16 14 13 12 12 11 11 10 9 9 8 8 8 9 10 10 11 11 11 11 11 11 12 12 13 13 13 12 12 12 12 13 13 14 14 14 14 14 14 15 15
19 18 17 15 15 14 13 12 12 11 10 10 9 9 8 8 9 10 11 11 11 11 11 12 12 12 13 14 13 13 13 13 13 13 13 14 15 16 16 16 16 16 16 16
19 19 18 16 15 14 14 13 13 12 11 10 10 10 10 9 9 10 11 12 12 12 12 12 13 13 14 14 14 14 14 14 15 15 15 15 15 16 16 17 17 17 17 17
21 20 19 17 16 15 15 14 13 13 12 12 12 12 11 11 10 11 11 12 13 13 13 13 13 13 14 15 14 15 15 15 16 16 17 17 17 17 17 18 18 18 18 18
22 21 19 17 16 16 15 13 13 13 13 13 12 12 12 12 12 12 12 12 13 13 14 14 14 14 14 14 15 15 16 16 16 17 17 18 17 18 18 19 19 19 19 20
22 21 17 17 17 16 14 14 14 14 13 13 13 13 14 13 13 13 13 12 13 14 14 15 15 16 16 15 16 16 17 17 18 18 19 19 19 19 20 20 20 20 20 20
22 21 18 16 17 16 15 14 14 14 13 13 13 14 13 13 14 13 13 13 13 14 14 15 15 16 17 17 17 17 18 19 20 20 20 20 20 20 20 21 21 21 22 22
22 20 19 19 18 17 16 15 14 14 14 14 15 15 14 14 14 14 13 13 14 14 14 15 16 16 17 17 18 18 19 20 21 22 22 21 21 21 22 22 22 22 23 23
24 22 22 21 20 19 18 17 16 15 15 15 16 16 15 15 15 14 14 13 13 14 15 15 15 16 17 17 18 19 19 19 20 21 21 22 22 22 22 22 23 24 25 25
26 24 24 23 22 21 20 19 18 18 17 16 16 15 16 16 16 16 16 16 15 15 15 15 15 16 17 18 18 19 19 19 19 20 21 21 22 23 23 24 24 24 25 26
27 26 25 24 23 22 21 20 20 20 18 17 16 16 17 17 17 17 17 18 18 17 17 17 16 17 17 18 18 19 19 20 21 21 21 22 23 23 24 25 25 25 25 26
28 27 27 26 25 24 22 21 21 21 20 19 18 18 18 18 17 17 18 19 19 18 18 18 18 18 19 19 19 20 20 21 22 23 23 24 24 25 25 25 26 26 26 26
30 29 28 28 27 26 25 24 23 23 22 21 20 20 19 18 18 18 19 19 20 19 19 19 20 20 20 20 20 21 21 22 23 24 25 25 26 26 26 26 27 27 27 28
31 30 29 29 29 27 26 25 25 24 24 23 22 21 20 20 20 20 19 20 21 21 21 21 21 21 21 21 22 22 22 23 23 24 24 24 25 26 27 28 28 28 29 30
32 32 30 30 30 29 28 27 26 27 27 26 24 23 22 22 21 21 21 21 21 22 22 22 22 22 22 22 22 23 24 24 24 25 25 25 26 27 28 29 30 31 32 33
33 32 32 31 30 30 30 28 28 28 27 26 26 26 25 23 23 23 22 23 23 23 23 23 23 23 23 23 23 24 24 24 25 26 26 27 27 28 29 30 31 32 33 34
33 33 33 33 32 31 31 30 30 29 28 27 26 26 25 25 24 24 24 25 24 24 24 24 24 25 25 25 25 26 26 26 27 27 28 29 29 30 30 31 32 33 34 36
33 33 32 33 33 32 31 31 30 30 29 28 27 27 27 27 27 26 26 26 26 25 25 25 26 26 26 27 28 28 28 28 28 29 29 30 31 32 33 34 35 36 37 38
34 33 33 33 33 32 32 31 31 30 30 29 29 28 28 29 28 28 27 27 26 26 26 27 27 28 29 29 29 30 30 30 31 32 32 33 34 35 36 37 37 38 39 40
34 34 34 33 33 32 32 32 32 31 31 30 29 29 29 29 29 29 28 27 27 27 27 28 28 29 29 29 30 31 31 32 33 33 34 35 36 37 37 38 40 40 41 42
34 34 35 34 33 33 32 32 32 31 31 31 30 30 30 29 29 28 28 29 29 29 29 30 30 31 31 31 32 32 33 33 34 35 36 36 37 38 39 40 41 42 43 43
33 33 34 34 35 34 34 33 32 31 31 31 31 31 30 29 29 29 30 30 30 31 31 32 32 33 33 33 34 35 35 36 37 38 38 39 40 41 41 41 42 43 43 44
32 33 33 34 35 35 34 34 33 33 32 32 32 31 31 30 30 31 31 32 32 33 33 34 34 34 35 35 36 36 37 38 38 39 40 40 41 41 41 42 43 44 45 46
33 34 34 33 34 34 34 33 33 32 32 32 32 32 31 31 31 32 32 32 33 34 35 35 36 36 36 37 37 37 38 38 39 40 41 41 41 42 42 43 44 45 46 47
33 34 34 33 34 34 34 33 33 34 33 33 32 33 33 33 33 32 33 33 34 34 35 35 35 36 36 37 38 39 39 40 40 40 41 41 42 43 43 44 45 46 47 48
Wind_Direction
229 228 227 226 227 236 244 243 245 244 239 238 228 223 221 221 218 217 217 222 227 228 229 231 231 229 231 231 230 232 235 237 239 238 237 239 242 244 247 250 253 258 264 269
227 229 228 228 227 232 240 240 241 241 239 239 232 233 230 227 225 221 223 226 232 234 235 236 234 233 233 232 231 235 239 239 235 237 240 244 247 249 249 250 253 258 263 267
230 229 228 230 232 234 236 236 238 241 238 237 233 233 232 230 226 225 229 232 236 240 240 238 237 237 236 232 234 239 242 240 238 241 244 248 251 253 253 254 258 261 263 264
230 229 231 231 233 237 237 235 236 235 234 233 237 236 234 233 232 234 237 238 239 241 240 238 240 239 235 235 237 241 243 240 240 245 248 251 254 255 255 257 261 264 268 267
229 230 230 231 232 236 235 233 232 231 231 232 238 241 240 238 238 242 244 241 240 240 239 239 241 240 238 238 239 242 245 245 246 249 252 254 258 260 260 260 262 266 268 268
230 233 232 232 232 233 234 232 230 233 233 234 238 242 242 244 247 250 245 241 239 238 240 239 240 241 240 240 241 245 247 247 251 253 255 258 261 262 264 266 265 266 268 268
231 233 232 229 229 231 234 235 234 235 236 237 240 243 244 247 249 253 253 244 242 243 243 242 241 243 244 245 246 249 252 252 254 256 258 261 264 265 266 267 267 267 270 270
233 234 229 226 227 231 233 233 236 237 239 239 241 242 244 246 250 256 254 251 247 245 246 246 245 245 247 249 251 252 254 255 256 258 260 263 264 266 267 267 267 268 271 274
235 235 232 228 227 226 227 232 238 240 243 244 241 240 242 246 251 255 253 254 253 250 249 249 249 249 249 249 252 257 258 256 256 259 261 263 263 266 268 268 267 268 271 274
233 232 232 230 227 228 229 233 236 239 241 244 244 243 246 250 253 255 255 256 256 256 258 256 252 251 251 253 255 259 260 261 259 259 260 262 264 267 270 270 270 271 272 274
231 230 232 232 228 229 231 232 234 237 240 244 247 247 250 253 256 257 257 256 258 259 259 259 257 256 257 258 260 261 264 264 264 263 262 265 266 268 270 271 272 272 273 274
230 230 231 230 230 231 233 234 236 238 243 247 249 250 253 254 255 256 256 257 259 261 262 260 259 261 262 262 264 265 265 266 267 268 267 267 268 269 270 272 273 275 277 276
230 230 230 232 232 232 233 236 237 239 243 246 248 251 253 255 257 256 255 257 259 260 261 261 261 263 266 267 268 267 267 266 268 269 270 269 269 270 271 272 274 277 277 278
231 231 232 233 234 235 237 238 239 242 244 247 248 251 253 255 256 257 257 257 258 259 260 260 262 265 268 269 270 269 269 270 270 270 270 270 271 272 273 275 277 278 279 280
232 233 234 234 233 234 237 241 243 244 245 246 247 250 252 255 256 257 257 258 257 258 260 262 264 266 270 272 274 272 271 272 273 274 273 273 273 274 274 276 277 278 280 281
233 233 233 233 233 235 237 240 243 243 244 246 247 250 252 253 255 257 259 258 257 258 261 264 267 268 270 271 273 274 274 274 275 276 277 276 277 277 277 278 278 280 281 283
233 233 234 234 235 238 239 241 242 245 244 245 247 250 252 254 256 258 259 259 259 260 263 265 266 269 271 273 275 277 277 276 276 277 278 279 279 280 280 281 281 281 283 284
233 234 235 235 236 238 239 240 241 242 243 245 246 249 251 254 256 258 260 261 262 263 263 263 264 266 270 273 276 278 278 279 280 280 280 280 281 282 282 283 284 285 286 286
234 234 235 235 236 238 239 239 238 239 240 243 246 248 251 253 255 258 260 262 263 263 263 264 265 267 269 271 275 278 279 279 280 280 280 281 283 284 285 286 287 288 289 289
236 235 235 235 236 237 239 239 239 240 241 244 247 249 252 255 257 258 259 260 262 263 263 265 267 269 271 273 275 277 278 280 281 282 283 284 285 286 287 288 289 289 289 289
236 235 234 234 235 236 237 239 240 242 243 245 248 251 254 256 258 259 259 260 262 263 264 266 268 270 272 274 276 278 279 280 281 283 284 285 287 289 289 289 290 290 291 291
236 235 235 234 235 235 237 239 241 243 244 247 249 251 254 257 258 259 258 260 263 264 266 268 269 271 273 275 277 278 280 281 283 284 286 287 288 289 290 290 291 291 292 293
236 236 235 234 234 235 238 240 241 243 245 247 249 251 253 255 257 258 258 260 262 264 266 268 270 272 273 275 276 278 279 281 283 284 286 288 289 289 289 290 292 293 293 294
235 234 232 232 233 235 238 240 240 242 245 247 249 251 254 256 258 259 259 261 263 265 268 269 270 272 274 276 278 279 280 282 284 285 286 288 290 290 291 292 293 294 295 295
233 233 233 232 233 235 238 240 241 242 245 247 250 252 254 256 259 261 262 263 265 267 269 270 271 273 274 276 279 280 281 283 284 286 287 289 290 291 292 292 294 295 296 296
232 231 232 234 236 237 239 240 241 242 245 248 250 252 254 256 258 260 262 265 267 268 270 271 272 274 276 276 278 280 282 283 285 287 288 288 290 292 293 293 294 296 297 298
231 231 233 235 236 237 239 240 242 243 245 248 250 252 254 256 259 261 264 266 268 269 271 273 274 276 277 278 280 281 282 284 285 287 288 289 291 292 294 294 296 297 298 298
Height
5831 5832 5833 5835 5836 5838 5839 5840 5841 5842 5843 5844 5844 5845 5846 5847 5849 5850 5851 5853 5854 5856 5857 5858 5859 5860 5861 5862 5863 5864 5865 5866 5867 5868 5869 5870 5870 5871 5871 5872 5872 5872 5872 5871
5827 5829 5830 5831 5833 5834 5835 5837 5838 5839 5840 5841 5842 5843 5844 5845 5846 5848 5849 5851 5852 5853 5854 5855 5856 5857 5858 5859 5860 5861 5863 5863 5864 5865 5866 5867 5867 5867 5868 5868 5868 5868 5868 5868
5823 5825 5826 5829 5831 5832 5833 5834 5835 5837 5839 5838 5839 5840 5842 5843 5844 5845 5847 5848 5849 5850 5851 5852 5853 5854 5855 5856 5857 5858 5859 5860 5861 5862 5863 5863 5864 5864 5864 5864 5864 5864 5864 5864
5819 5822 5823 5828 5827 5828 5830 5831 5833 5834 5835 5836 5837 5838 5839 5841 5842 5843 5844 5845 5846 5847 5848 5849 5850 5851 5852 5853 5854 5855 5856 5857 5858 5858 5859 5859 5860 5860 5860 5860 5860 5860 5860 5860
5815 5817 5820 5823 5824 5825 5826 5828 5829 5831 5832 5833 5834 5836 5837 5838 5839 5840 5841 5842 5843 5844 5845 5846 5847 5848 5848 5849 5850 5851 5852 5853 5854 5855 5855 5855 5855 5856 5856 5856 5856 5856 5856 5855
5811 5813 5815 5820 5821 5821 5824 5825 5827 5828 5829 5831 5832 5833 5835 5835 5836 5837 5837 5838 5839 5840 5841 5842 5843 5844 5845 5846 5847 5848 5848 5849 5850 5850 5851 5851 5851 5851 5851 5851 5851 5851 5851 5850
5806 5808 5811 5815 5816 5818 5821 5823 5824 5825 5826 5828 5829 5831 5832 5832 5833 5833 5834 5834 5835 5836 5837 5838 5839 5840 5841 5842 5843 5844 5844 5845 5845 5845 5846 5846 5846 5846 5846 5846 5846 5846 5845 5845
5801 5804 5809 5810 5812 5815 5817 5818 5819 5821 5823 5824 5826 5827 5828 5829 5829 5830 5830 5831 5831 5832 5833 5834 5835 5836 5837 5838 5838 5839 5839 5840 5840 5840 5841 5841 5841 5841 5841 5841 5841 5840 5840 5839
5798 5802 5804 5806 5808 5810 5812 5814 5815 5817 5819 5820 5821 5823 5824 5825 5826 5826 5827 5827 5828 5828 5829 5829 5830 5831 5832 5832 5833 5834 5834 5835 5835 5835 5835 5835 5836 5836 5835 5835 5835 5835 5834 5834
5791 5795 5798 5800 5803 5806 5808 5810 5812 5813 5815 5816 5818 5819 5820 5821 5822 5822 5823 5823 5824 5824 5824 5825 5826 5826 5827 5827 5828 5828 5829 5829 5829 5830 5830 5830 5830 5830 5830 5829 5829 5828 5828 5827
5785 5789 5792 5795 5798 5801 5803 5805 5807 5809 5811 5812 5814 5815 5816 5817 5818 5818 5818 5819 5819 5820 5820 5821 5821 5821 5822 5822 5823 5823 5823 5823 5823 5823 5823 5824 5824 5824 5823 5823 5823 5822 5821 5821
5780 5784 5786 5789 5792 5796 5798 5800 5803 5805 5806 5808 5809 5810 5811 5812 5813 5814 5814 5815 5815 5816 5816 5816 5816 5817 5817 5817 5817 5818 5818 5817 5818 5818 5817 5817 5817 5817 5817 5817 5816 5815 5814 5814
5774 5777 5780 5783 5786 5790 5792 5795 5797 5799 5801 5803 5804 5805 5806 5807 5808 5809 5809 5810 5811 5811 5811 5812 5812 5812 5812 5812 5812 5812 5812 5812 5811 5811 5811 5811 5811 5810 5810 5809 5808 5808 5807 5806
5767 5770 5773 5777 5780 5783 5786 5789 5791 5794 5796 5797 5799 5800 5801 5802 5803 5804 5804 5805 5806 5806 5806 5806 5807 5807 5807 5806 5806 5806 5806 5806 5805 5805 5805 5804 5803 5803 5802 5801 5801 5800 5799 5797
5760 5763 5767 5770 5774 5777 5780 5782 5785 5788 5790 5792 5793 5794 5795 5797 5798 5798 5799 5800 5800 5800 5801 5801 5801 5801 5801 5801 5800 5800 5800 5799 5799 5798 5798 5797 5796 5796 5795 5794 5793 5792 5791 5789
5752 5755 5759 5763 5766 5770 5773 5775 5778 5781 5783 5785 5786 5788 5789 5790 5791 5792 5793 5793 5794 5794 5795 5795 5795 5795 5795 5794 5794 5793 5793 5792 5792 5791 5790 5790 5789 5788 5787 5786 5785 5784 5782 5781
5743 5747 5751 5755 5759 5762 5765 5768 5771 5774 5776 5778 5780 5781 5782 5784 5785 5786 5787 5787 5788 5788 5788 5788 5788 5788 5788 5788 5787 5787 5786 5785 5785 5784 5783 5783 5782 5780 5779 5778 5776 5775 5773 5771
5735 5739 5743 5747 5751 5754 5757 5760 5763 5766 5768 5771 5772 5774 5776 5777 5778 5779 5780 5780 5780 5781 5781 5781 5781 5781 5781 5781 5780 5780 5779 5778 5777 5776 5775 5775 5773 5772 5770 5769 5767 5766 5764 5762
5726 5730 5734 5738 5742 5746 5749 5753 5755 5758 5761 5763 5765 5766 5768 5770 5771 5772 5772 5773 5773 5774 5774 5774 5774 5774 5774 5773 5773 5772 5771 5770 5769 5769 5767 5766 5765 5763 5762 5760 5758 5756 5754 5751
5717 5721 5725 5729 5733 5737 5741 5744 5747 5750 5753 5755 5757 5759 5760 5762 5763 5763 5764 5765 5766 5766 5766 5766 5766 5766 5766 5765 5765 5764 5763 5762 5761 5760 5759 5757 5756 5754 5752 5750 5748 5745 5743 5740
5708 5712 5716 5720 5724 5728 5732 5735 5738 5741 5744 5746 5748 5750 5752 5753 5754 5755 5756 5757 5758 5758 5758 5758 5758 5758 5758 5757 5757 5756 5755 5754 5753 5751 5750 5748 5746 5744 5742 5739 5737 5734 5731 5728
5699 5703 5707 5711 5715 5719 5723 5726 5729 5732 5735 5737 5739 5741 5743 5744 5745 5746 5747 5748 5749 5749 5750 5750 5749 5749 5749 5748 5747 5746 5745 5744 5743 5741 5740 5738 5735 5733 5731 5728 5725 5722 5719 5715
5690 5694 5698 5702 5706 5710 5713 5717 5720 5723 5725 5728 5730 5732 5734 5735 5736 5737 5738 5739 5740 5740 5741 5741 5740 5740 5740 5739 5738 5737 5736 5734 5733 5731 5729 5727 5724 5722 5719 5716 5713 5710 5706 5703
5681 5685 5689 5693 5697 5701 5704 5708 5711 5714 5716 5719 5721 5723 5725 5726 5727 5728 5729 5729 5730 5731 5731 5731 5731 5730 5729 5729 5728 5727 5725 5724 5722 5720 5718 5715 5713 5710 5706 5703 5700 5697 5693 5689
5672 5676 5680 5684 5688 5691 5695 5698 5701 5704 5707 5709 5711 5713 5715 5717 5718 5718 5719 5719 5720 5720 5720 5720 5720 5719 5719 5718 5717 5715 5714 5712 5710 5708 5706 5703 5700 5697 5694 5691 5687 5684 5680 5676
5663 5667 5671 5675 5678 5682 5685 5688 5691 5694 5697 5699 5702 5704 5705 5706 5707 5708 5709 5709 5709 5709 5709 5709 5709 5708 5707 5706 5705 5703 5702 5700 5698 5696 5693 5690 5688 5684 5681 5678 5674 5670 5666 5662
5654 5658 5662 5665 5669 5672 5675 5678 5681 5684 5687 5689 5692 5693 5695 5696 5697 5698 5698 5699 5699 5699 5698 5698 5697 5696 5695 5694 5693 5691 5689 5687 5685 5683 5681 5678 5675 5672 5668 5665 5661 5657 5652 5648